Regional Weather Roundup
Issued by NWS Northern Indiana

Home | Current Version | Previous Version | Text Only | Print | Product List | Glossary Off
Versions: 1 2 3 4 5 6 7 8 9 10 11 12 13 14 15 16 17 18 19 20 21 22 23 24 25 26 27 28 29 30 31 32 33 34 35 36 37 38 39 40 41 42 43 44 45 46 47 48 49 50

000
ASUS43 KIWX 302310
RWRIWX

KIWX WEATHER ROUNDUP
NATIONAL WEATHER SERVICE NORTHERN INDIANA
700 PM EDT SUN APR 30 2017

NOTE: "FAIR" INDICATES FEW OR NO CLOUDS BELOW 12,000 FEET WITH NO
SIGNIFICANT WEATHER AND/OR OBSTRUCTIONS TO VISIBILITY.

* THESE STATIONS ARE NOT UNDER NWS QUALITY CONTROL. THEY ALSO MAY NOT
  REPORT WEATHER SUCH AS PRECIPITATION OR FOG.

INZ001>027-010000-
NORTHERN INDIANA

CITY           SKY/WX    TMP DP  RH WIND       PRES   REMARKS
GARY*          FOG       46  46 100 N8        29.76F VSB 3/4
VALPARAISO     LGT RAIN  52  50  93 NE6       29.73F FOG
MICHIGAN CITY* DRIZZLE   48  48 100 CALM      29.75F
LAPORTE*       RAIN      53  52  97 N6        29.74F
KNOX*          CLOUDY    63  57  82 E5        29.72S
SOUTH BEND     CLOUDY    61  61 100 N3        29.75S
GOSHEN         CLOUDY    67  62  84 SE8       29.75F
MONTICELLO*    LGT RAIN  65  63  95 SE6       29.71F
LOGANSPORT*    RAIN      64  63  94 SE7       29.74F
ROCHESTER*     RAIN      66  64  94 SE5       29.75F
WARSAW*        CLOUDY    64  63  94 S6        29.76S
ANGOLA*        PTSUNNY   66  63  88 S7        29.78S
FORT WAYNE     CLOUDY    66  63  90 S5        29.78F
HUNTINGTON*    CLOUDY   N/A N/A N/A SE3       29.76F
PERU/GRISSOM   LGT RAIN  65  65 100 SE6       29.73F
MARION*        CLOUDY    64  63  94 SE6       29.76F

$$
INZ028>050-010000-
CENTRAL INDIANA

CITY           SKY/WX    TMP DP  RH WIND       PRES   REMARKS
LAFAYETTE      LGT RAIN  64  64 100 E9        29.69F
KOKOMO*        LGT RAIN  65  63  93 SE7       29.75F
MUNCIE*        CLOUDY    68  63  84 SE5       29.76F
INDIANAPOLIS   RAIN      65  64  97 SW3       29.75R FOG

$$
MIZ043>046-050>051-056>058-064>065-071>073-077>080-010000-
SOUTHWEST LOWER MICHIGAN

CITY           SKY/WX    TMP DP  RH WIND       PRES   REMARKS
BATTLE CREEK   CLOUDY    57  56  96 NE9       29.79R FOG
BENTON HARBOR  LGT RAIN  55  52  89 CALM      29.77S FOG
COLDWATER*     CLOUDY    63  63 100 SE12      29.79R FOG
HILLSDALE*     CLOUDY    59  55  88 SE6       29.79F FOG
HOLLAND        CLOUDY    45  43  93 E12       29.79F
GRAND RAPIDS   LGT RAIN  43  43 100 E12       29.83R FOG
KALAMAZOO      CLOUDY    56  53  90 CALM      29.79R FOG
STURGIS*       CLOUDY    66  64  93 S6        29.76F
THREE RIVERS*  RAIN      64  64  97 CALM      29.76S

$$
OHZ001>008-015>018-024>025-010000-
NORTHWEST OHIO

CITY           SKY/WX    TMP DP  RH WIND       PRES   REMARKS
WAUSEON*       FAIR      61  61 100 E5        29.80F FOG
DEFIANCE       CLOUDY    64  62  93 SW6       29.81R
FINDLAY        CLOUDY    67  62  84 W6        29.81F
TOLEDO EXPRESS LGT RAIN  54  54 100 E6        29.82S FOG
TOLEDO METCALF LGT RAIN  54  54 100 CALM      29.84S FOG
LIMA           CLOUDY    65  64  97 CALM      29.80F

$$
AND FOR LAKE MICHIGAN COASTAL AND OPEN LAKE BUOY OBSERVATIONS

STATION/POSITION TEMP    WIND        PRES    VSBY  WAVE
                 AIR SEA DIR/SP/G                  HT/PER
                 (F)     (DEG/KT/KT) (MB)    (MI)  (FT/S)
CALUMET HARBOR    43     360/  9/ 13 1007.1F
MICHIGAN CITY     47      30/  8/  8   N/A
BURNS HARBOR      46      40/  9/ 10 1007.8F
SOUTH LAKE BUOY   42 41   50/ 14/ 16 1008.6F         3/ 6
4 MI NW BRIDGMAN  48 46   40/  2/  6 1008.4          2/ 6
MICHIGAN CITY     46 49                N/A           3/ 5

$$
&&



USA.gov is the U.S. government's official web portal to all federal, state and local government web resources and services.